Terminal Aerodrome Forecast
Issued by NWS Boise, ID

Home | Current Version | Previous Version | Text Only | Print | Product List | Glossary On
Versions: 1 2 3 4 5 6 7 8 9 10 11 12 13 14 15 16 17 18 19 20 21 22 23 24 25 26 27 28 29 30 31 32 33 34 35 36
163
FTUS45 KBOI 142325
TAFBNO
TAF
KBNO 142325Z 1500/1524 VRB05KT P6SM VCSH SCT020 OVC035
     FM150400 VRB05KT P6SM VCFG BKN050
      TEMPO 1511/1514 3SM BR SCT001
     FM151900 23009KT P6SM SCT050 BKN200=

USA.gov is the U.S. government's official web portal to all federal, state and local government web resources and services.